User: anonymous   Login
Location: Coupvray
(48.8929°N, 2.7967°E)
Time: 12:00:31
(UTC+00:00)
Language:

ISS - Orbit

View from above orbital plane
View from above orbital plane
View from above satellite
View from above satellite

Ground track
Ground track

The orbit data is extracted from the following two-line orbital elements,

1 25544U 98067A   21271.28780583  .00037716  00000-0  69188-3 0  9993
2 25544  51.6451 192.9523 0003620  33.1017 105.0724 15.48896784304579
Epoch (UTC): 28 September 2021 06:54:26
Eccentricity: 0.0003620
inclination: 51.6451°
perigee height: 417 km
apogee height: 422 km
right ascension of ascending node: 192.9523°
argument of perigee: 33.1017°
revolutions per day: 15.48896784
mean anomaly at epoch: 105.0724°
orbit number at epoch: 30457

The dashed part of the orbit path shows where the satellite is in the earth's shadow,  

DLR